owner,sensor,date,latitude,longitude,vertical_datum,wind_speed,wind_to_direction,wind_speed_of_gust,qcFlag 
NDBC,ioos:station:NOAA.NDBC:SAUF1:1,2019-01-01T01:00:00Z,29.8570,-81.2650,16.5,5.1,180.0,5.7,'1111122,1111122,1111122' 
NDBC,ioos:station:NOAA.NDBC:SAUF1:1,2019-01-01T02:00:00Z,29.8570,-81.2650,16.5,4.6,180.0,4.6,'1111122,1111122,1111122' 
NDBC,ioos:station:NOAA.NDBC:SAUF1:1,2019-01-01T03:00:00Z,29.8570,-81.2650,16.5,4.1,170.0,4.6,'1111122,1111122,1111122' 
NDBC,ioos:station:NOAA.NDBC:SAUF1:1,2019-01-01T04:00:00Z,29.8570,-81.2650,16.5,4.1,180.0,4.1,'1111122,1111122,1111122' 
NDBC,ioos:station:NOAA.NDBC:SAUF1:1,2019-01-01T05:00:00Z,29.8570,-81.2650,16.5,2.6,230.0,3.1,'1111122,1111122,1111122' 
NDBC,ioos:station:NOAA.NDBC:SAUF1:1,2019-01-01T06:00:00Z,29.8570,-81.2650,16.5,3.1,210.0,3.6,'1111122,1111122,1111122' 
NDBC,ioos:station:NOAA.NDBC:SAUF1:1,2019-01-01T07:00:00Z,29.8570,-81.2650,16.5,3.1,200.0,3.6,'1111122,1111122,1111122' 
NDBC,ioos:station:NOAA.NDBC:SAUF1:1,2019-01-01T08:00:00Z,29.8570,-81.2650,16.5,2.6,270.0,3.6,'1111122,1111122,1111122' 
NDBC,ioos:station:NOAA.NDBC:SAUF1:1,2019-01-01T09:00:00Z,29.8570,-81.2650,16.5,2.6,220.0,3.1,'1111122,1111122,1111122' 
NDBC,ioos:station:NOAA.NDBC:SAUF1:1,2019-01-01T10:00:00Z,29.8570,-81.2650,16.5,2.1,230.0,2.6,'1111122,1111122,1111122' 
NDBC,ioos:station:NOAA.NDBC:SAUF1:1,2019-01-01T11:00:00Z,29.8570,-81.2650,16.5,2.1,220.0,2.6,'1111122,1111122,1111122' 
NDBC,ioos:station:NOAA.NDBC:SAUF1:1,2019-01-01T12:00:00Z,29.8570,-81.2650,16.5,1.5,200.0,1.5,'1111122,1111122,1111122' 
NDBC,ioos:station:NOAA.NDBC:SAUF1:1,2019-01-01T13:00:00Z,29.8570,-81.2650,16.5,2.1,210.0,2.6,'1111122,1111122,1111122' 
NDBC,ioos:station:NOAA.NDBC:SAUF1:1,2019-01-01T14:00:00Z,29.8570,-81.2650,16.5,2.6,220.0,3.1,'1111122,1111122,1111122' 
NDBC,ioos:station:NOAA.NDBC:SAUF1:1,2019-01-01T15:00:00Z,29.8570,-81.2650,16.5,2.6,240.0,3.1,'1111122,1111122,1111122' 
NDBC,ioos:station:NOAA.NDBC:SAUF1:1,2019-01-01T16:00:00Z,29.8570,-81.2650,16.5,3.1,250.0,3.6,'1111122,1111122,1111122' 
NDBC,ioos:station:NOAA.NDBC:SAUF1:1,2019-01-01T17:00:00Z,29.8570,-81.2650,16.5,1.5,120.0,2.6,'1111122,1111122,1111122' 
NDBC,ioos:station:NOAA.NDBC:SAUF1:1,2019-01-01T18:00:00Z,29.8570,-81.2650,16.5,2.6,80.0,3.1,'1111122,1111122,1111122' 
NDBC,ioos:station:NOAA.NDBC:SAUF1:1,2019-01-01T19:00:00Z,29.8570,-81.2650,16.5,3.6,100.0,3.6,'1111122,1111122,1111122' 
NDBC,ioos:station:NOAA.NDBC:SAUF1:1,2019-01-01T20:00:00Z,29.8570,-81.2650,16.5,3.1,130.0,3.1,'1111122,1111122,1111122' 
NDBC,ioos:station:NOAA.NDBC:SAUF1:1,2019-01-01T21:00:00Z,29.8570,-81.2650,16.5,3.1,130.0,3.6,'1111122,1111122,1111122' 
NDBC,ioos:station:NOAA.NDBC:SAUF1:1,2019-01-01T22:00:00Z,29.8570,-81.2650,16.5,3.1,170.0,3.6,'1111122,1111122,1111122' 
NDBC,ioos:station:NOAA.NDBC:SAUF1:1,2019-01-01T23:00:00Z,29.8570,-81.2650,16.5,2.6,180.0,2.6,'1111122,1111122,1111122' 
NDBC,ioos:station:NOAA.NDBC:SAUF1:1,2019-01-02T00:00:00Z,29.8570,-81.2650,16.5,3.1,170.0,3.1,'1111122,1111122,1111122' 
NDBC,ioos:station:NOAA.NDBC:SAUF1:1,2019-01-02T01:00:00Z,29.8570,-81.2650,16.5,3.6,180.0,3.6,'1111122,1111122,1111122' 
NDBC,ioos:station:NOAA.NDBC:SAUF1:1,2019-01-02T03:00:00Z,29.8570,-81.2650,16.5,3.6,180.0,4.1,'1111122,1111122,1111122' 
NDBC,ioos:station:NOAA.NDBC:SAUF1:1,2019-01-02T04:00:00Z,29.8570,-81.2650,16.5,3.1,180.0,3.1,'1111122,1111122,1111122' 
NDBC,ioos:station:NOAA.NDBC:SAUF1:1,2019-01-02T05:00:00Z,29.8570,-81.2650,16.5,2.1,190.0,2.6,'1111122,1111122,1111122' 
NDBC,ioos:station:NOAA.NDBC:SAUF1:1,2019-01-02T06:00:00Z,29.8570,-81.2650,16.5,1.5,220.0,2.1,'1111122,1111122,1111122' 
NDBC,ioos:station:NOAA.NDBC:SAUF1:1,2019-01-02T07:00:00Z,29.8570,-81.2650,16.5,2.1,200.0,2.1,'1111122,1111122,1111122' 
NDBC,ioos:station:NOAA.NDBC:SAUF1:1,2019-01-02T08:00:00Z,29.8570,-81.2650,16.5,1.0,220.0,1.0,'1111122,1111122,1111122' 
NDBC,ioos:station:NOAA.NDBC:SAUF1:1,2019-01-02T09:00:00Z,29.8570,-81.2650,16.5,0.5,160.0,0.5,'1111122,1111122,1111122' 
NDBC,ioos:station:NOAA.NDBC:SAUF1:1,2019-01-02T11:00:00Z,29.8570,-81.2650,16.5,3.1,160.0,3.1,'1111122,1111122,1111122' 
NDBC,ioos:station:NOAA.NDBC:SAUF1:1,2019-01-02T12:00:00Z,29.8570,-81.2650,16.5,0.0,-9999.0,0.5,'1114422,1111122,1111122' 
NDBC,ioos:station:NOAA.NDBC:SAUF1:1,2019-01-02T13:00:00Z,29.8570,-81.2650,16.5,1.0,150.0,1.0,'1111122,1111122,1111122' 
NDBC,ioos:station:NOAA.NDBC:SAUF1:1,2019-01-02T14:00:00Z,29.8570,-81.2650,16.5,3.6,170.0,4.1,'1111122,1111122,1111122' 
NDBC,ioos:station:NOAA.NDBC:SAUF1:1,2019-01-02T15:00:00Z,29.8570,-81.2650,16.5,3.1,180.0,3.6,'1111122,1111122,1111122' 
NDBC,ioos:station:NOAA.NDBC:SAUF1:1,2019-01-02T16:00:00Z,29.8570,-81.2650,16.5,2.1,130.0,2.1,'1111122,1111122,1111122' 
NDBC,ioos:station:NOAA.NDBC:SAUF1:1,2019-01-02T17:00:00Z,29.8570,-81.2650,16.5,1.5,140.0,2.1,'1111122,1111122,1111122' 
NDBC,ioos:station:NOAA.NDBC:SAUF1:1,2019-01-02T18:00:00Z,29.8570,-81.2650,16.5,1.0,70.0,1.0,'1111122,1111122,1111122' 
NDBC,ioos:station:NOAA.NDBC:SAUF1:1,2019-01-02T19:00:00Z,29.8570,-81.2650,16.5,1.5,70.0,1.5,'1111122,1111122,1111122' 
NDBC,ioos:station:NOAA.NDBC:SAUF1:1,2019-01-02T20:00:00Z,29.8570,-81.2650,16.5,1.0,120.0,1.0,'1111122,1111122,1111122' 
NDBC,ioos:station:NOAA.NDBC:SAUF1:1,2019-01-02T21:00:00Z,29.8570,-81.2650,16.5,1.0,100.0,1.0,'1111122,1111122,1111122' 
NDBC,ioos:station:NOAA.NDBC:SAUF1:1,2019-01-02T22:00:00Z,29.8570,-81.2650,16.5,2.1,140.0,2.1,'1111122,1111122,1111122' 
NDBC,ioos:station:NOAA.NDBC:SAUF1:1,2019-01-02T23:00:00Z,29.8570,-81.2650,16.5,4.6,150.0,5.1,'1111122,1111122,1111122' 
NDBC,ioos:station:NOAA.NDBC:SAUF1:1,2019-01-03T00:00:00Z,29.8570,-81.2650,16.5,3.1,170.0,3.6,'1111122,1111122,1111122' 
NDBC,ioos:station:NOAA.NDBC:SAUF1:1,2019-01-03T01:00:00Z,29.8570,-81.2650,16.5,2.6,170.0,3.1,'1111122,1111122,1111122' 
NDBC,ioos:station:NOAA.NDBC:SAUF1:1,2019-01-03T02:00:00Z,29.8570,-81.2650,16.5,2.1,170.0,2.1,'1111122,1111122,1111122' 
NDBC,ioos:station:NOAA.NDBC:SAUF1:1,2019-01-03T03:00:00Z,29.8570,-81.2650,16.5,2.6,170.0,3.1,'1111122,1111122,1111122' 
NDBC,ioos:station:NOAA.NDBC:SAUF1:1,2019-01-03T04:00:00Z,29.8570,-81.2650,16.5,3.6,180.0,3.6,'1111122,1111122,1111122' 
NDBC,ioos:station:NOAA.NDBC:SAUF1:1,2019-01-03T05:00:00Z,29.8570,-81.2650,16.5,4.6,180.0,4.6,'1111122,1111122,1111122' 
NDBC,ioos:station:NOAA.NDBC:SAUF1:1,2019-01-03T06:00:00Z,29.8570,-81.2650,16.5,3.6,190.0,3.6,'1111122,1111122,1111122' 
NDBC,ioos:station:NOAA.NDBC:SAUF1:1,2019-01-03T07:00:00Z,29.8570,-81.2650,16.5,3.1,190.0,3.6,'1111122,1111122,1111122' 
NDBC,ioos:station:NOAA.NDBC:SAUF1:1,2019-01-03T08:00:00Z,29.8570,-81.2650,16.5,3.6,220.0,4.6,'1111122,1111122,1111122' 
NDBC,ioos:station:NOAA.NDBC:SAUF1:1,2019-01-03T09:00:00Z,29.8570,-81.2650,16.5,3.6,200.0,4.6,'1111122,1111122,1111122' 
NDBC,ioos:station:NOAA.NDBC:SAUF1:1,2019-01-03T10:00:00Z,29.8570,-81.2650,16.5,3.6,210.0,5.1,'1111122,1111122,1111122' 
NDBC,ioos:station:NOAA.NDBC:SAUF1:1,2019-01-03T11:00:00Z,29.8570,-81.2650,16.5,5.7,200.0,6.7,'1111122,1111122,1111122' 
NDBC,ioos:station:NOAA.NDBC:SAUF1:1,2019-01-03T12:00:00Z,29.8570,-81.2650,16.5,3.6,200.0,4.1,'1111122,1111122,1111122' 
NDBC,ioos:station:NOAA.NDBC:SAUF1:1,2019-01-03T14:00:00Z,29.8570,-81.2650,16.5,3.6,220.0,4.6,'1111122,1111122,1111122' 
NDBC,ioos:station:NOAA.NDBC:SAUF1:1,2019-01-03T15:00:00Z,29.8570,-81.2650,16.5,6.2,200.0,7.7,'1111122,1111122,1111122' 
NDBC,ioos:station:NOAA.NDBC:SAUF1:1,2019-01-03T16:00:00Z,29.8570,-81.2650,16.5,4.6,210.0,6.2,'1111122,1111122,1111122' 
NDBC,ioos:station:NOAA.NDBC:SAUF1:1,2019-01-03T17:00:00Z,29.8570,-81.2650,16.5,6.2,220.0,7.2,'1111122,1111122,1111122' 
NDBC,ioos:station:NOAA.NDBC:SAUF1:1,2019-01-03T18:00:00Z,29.8570,-81.2650,16.5,4.6,230.0,6.7,'1111122,1111122,1111122' 
NDBC,ioos:station:NOAA.NDBC:SAUF1:1,2019-01-03T19:00:00Z,29.8570,-81.2650,16.5,4.6,220.0,7.2,'1111122,1111122,1111122' 
NDBC,ioos:station:NOAA.NDBC:SAUF1:1,2019-01-03T20:00:00Z,29.8570,-81.2650,16.5,4.6,210.0,5.7,'1111122,1111122,1111122' 
NDBC,ioos:station:NOAA.NDBC:SAUF1:1,2019-01-03T21:00:00Z,29.8570,-81.2650,16.5,2.1,220.0,2.6,'1111122,1111122,1111122' 
NDBC,ioos:station:NOAA.NDBC:SAUF1:1,2019-01-03T22:00:00Z,29.8570,-81.2650,16.5,1.5,200.0,1.5,'1111122,1111122,1111122' 
NDBC,ioos:station:NOAA.NDBC:SAUF1:1,2019-01-03T23:00:00Z,29.8570,-81.2650,16.5,1.5,200.0,2.1,'1111122,1111122,1111122' 
NDBC,ioos:station:NOAA.NDBC:SAUF1:1,2019-01-04T00:00:00Z,29.8570,-81.2650,16.5,1.5,230.0,1.5,'1111122,1111122,1111122' 
NDBC,ioos:station:NOAA.NDBC:SAUF1:1,2019-01-04T01:00:00Z,29.8570,-81.2650,16.5,3.6,180.0,4.1,'1111122,1111122,1111122' 
NDBC,ioos:station:NOAA.NDBC:SAUF1:1,2019-01-04T03:00:00Z,29.8570,-81.2650,16.5,4.6,180.0,5.1,'1111122,1111122,1111122' 
NDBC,ioos:station:NOAA.NDBC:SAUF1:1,2019-01-04T04:00:00Z,29.8570,-81.2650,16.5,3.1,180.0,3.6,'1111122,1111122,1111122' 
NDBC,ioos:station:NOAA.NDBC:SAUF1:1,2019-01-04T05:00:00Z,29.8570,-81.2650,16.5,1.5,210.0,1.5,'1111122,1111122,1111122' 
NDBC,ioos:station:NOAA.NDBC:SAUF1:1,2019-01-04T06:00:00Z,29.8570,-81.2650,16.5,1.5,240.0,2.1,'1111122,1111122,1111122' 
NDBC,ioos:station:NOAA.NDBC:SAUF1:1,2019-01-04T07:00:00Z,29.8570,-81.2650,16.5,3.6,240.0,4.1,'1111122,1111122,1111122' 
NDBC,ioos:station:NOAA.NDBC:SAUF1:1,2019-01-04T08:00:00Z,29.8570,-81.2650,16.5,3.1,240.0,4.1,'1111122,1111122,1111122' 
NDBC,ioos:station:NOAA.NDBC:SAUF1:1,2019-01-04T09:00:00Z,29.8570,-81.2650,16.5,2.6,250.0,3.1,'1111122,1111122,1111122' 
NDBC,ioos:station:NOAA.NDBC:SAUF1:1,2019-01-04T10:00:00Z,29.8570,-81.2650,16.5,3.1,250.0,4.1,'1111122,1111122,1111122' 
NDBC,ioos:station:NOAA.NDBC:SAUF1:1,2019-01-04T11:00:00Z,29.8570,-81.2650,16.5,2.6,220.0,3.6,'1111122,1111122,1111122' 
NDBC,ioos:station:NOAA.NDBC:SAUF1:1,2019-01-04T12:00:00Z,29.8570,-81.2650,16.5,3.1,210.0,3.6,'1111122,1111122,1111122' 
NDBC,ioos:station:NOAA.NDBC:SAUF1:1,2019-01-04T13:00:00Z,29.8570,-81.2650,16.5,5.1,190.0,5.7,'1111122,1111122,1111122' 
NDBC,ioos:station:NOAA.NDBC:SAUF1:1,2019-01-04T14:00:00Z,29.8570,-81.2650,16.5,5.1,190.0,6.2,'1111122,1111122,1111122' 
NDBC,ioos:station:NOAA.NDBC:SAUF1:1,2019-01-04T15:00:00Z,29.8570,-81.2650,16.5,5.1,210.0,6.7,'1111122,1111122,1111122' 
NDBC,ioos:station:NOAA.NDBC:SAUF1:1,2019-01-04T16:00:00Z,29.8570,-81.2650,16.5,8.8,190.0,9.8,'1111122,1111122,1111122' 
NDBC,ioos:station:NOAA.NDBC:SAUF1:1,2019-01-04T17:00:00Z,29.8570,-81.2650,16.5,7.7,190.0,9.8,'1111122,1111122,1111122' 
NDBC,ioos:station:NOAA.NDBC:SAUF1:1,2019-01-04T18:00:00Z,29.8570,-81.2650,16.5,4.6,200.0,5.7,'1111122,1111122,1111122' 
NDBC,ioos:station:NOAA.NDBC:SAUF1:1,2019-01-04T19:00:00Z,29.8570,-81.2650,16.5,7.7,210.0,10.3,'1111122,1111122,1111122' 
NDBC,ioos:station:NOAA.NDBC:SAUF1:1,2019-01-04T20:00:00Z,29.8570,-81.2650,16.5,6.2,210.0,8.2,'1111122,1111122,1111122' 
NDBC,ioos:station:NOAA.NDBC:SAUF1:1,2019-01-04T21:00:00Z,29.8570,-81.2650,16.5,6.7,220.0,8.2,'1111122,1111122,1111122' 
NDBC,ioos:station:NOAA.NDBC:SAUF1:1,2019-01-04T22:00:00Z,29.8570,-81.2650,16.5,4.1,200.0,4.6,'1111122,1111122,1111122' 
NDBC,ioos:station:NOAA.NDBC:SAUF1:1,2019-01-04T23:00:00Z,29.8570,-81.2650,16.5,4.1,200.0,5.7,'1111122,1111122,1111122' 
NDBC,ioos:station:NOAA.NDBC:SAUF1:1,2019-01-05T00:00:00Z,29.8570,-81.2650,16.5,5.1,240.0,6.7,'1111122,1111122,1111122' 
NDBC,ioos:station:NOAA.NDBC:SAUF1:1,2019-01-05T01:00:00Z,29.8570,-81.2650,16.5,3.6,230.0,5.1,'1111122,1111122,1111122' 
NDBC,ioos:station:NOAA.NDBC:SAUF1:1,2019-01-05T02:00:00Z,29.8570,-81.2650,16.5,3.6,230.0,5.1,'1111122,1111122,1111122' 
NDBC,ioos:station:NOAA.NDBC:SAUF1:1,2019-01-05T03:00:00Z,29.8570,-81.2650,16.5,4.1,240.0,6.2,'1111122,1111122,1111122' 
NDBC,ioos:station:NOAA.NDBC:SAUF1:1,2019-01-05T04:00:00Z,29.8570,-81.2650,16.5,3.6,230.0,5.1,'1111122,1111122,1111122' 
NDBC,ioos:station:NOAA.NDBC:SAUF1:1,2019-01-05T05:00:00Z,29.8570,-81.2650,16.5,4.1,240.0,5.1,'1111122,1111122,1111122' 
NDBC,ioos:station:NOAA.NDBC:SAUF1:1,2019-01-05T06:00:00Z,29.8570,-81.2650,16.5,5.1,260.0,7.7,'1111122,1111122,1111122' 
NDBC,ioos:station:NOAA.NDBC:SAUF1:1,2019-01-05T07:00:00Z,29.8570,-81.2650,16.5,3.6,260.0,4.6,'1111122,1111122,1111122' 
NDBC,ioos:station:NOAA.NDBC:SAUF1:1,2019-01-05T08:00:00Z,29.8570,-81.2650,16.5,3.1,260.0,3.6,'1111122,1111122,1111122' 
NDBC,ioos:station:NOAA.NDBC:SAUF1:1,2019-01-05T09:00:00Z,29.8570,-81.2650,16.5,1.5,250.0,2.1,'1111122,1111122,1111122' 
NDBC,ioos:station:NOAA.NDBC:SAUF1:1,2019-01-05T10:00:00Z,29.8570,-81.2650,16.5,3.6,300.0,5.1,'1111122,1111122,1111122' 
NDBC,ioos:station:NOAA.NDBC:SAUF1:1,2019-01-05T11:00:00Z,29.8570,-81.2650,16.5,3.1,270.0,4.1,'1111122,1111122,1111122' 
NDBC,ioos:station:NOAA.NDBC:SAUF1:1,2019-01-05T12:00:00Z,29.8570,-81.2650,16.5,2.1,280.0,3.6,'1111122,1111122,1111122' 
NDBC,ioos:station:NOAA.NDBC:SAUF1:1,2019-01-05T13:00:00Z,29.8570,-81.2650,16.5,3.1,290.0,4.1,'1111122,1111122,1111122' 
NDBC,ioos:station:NOAA.NDBC:SAUF1:1,2019-01-05T15:00:00Z,29.8570,-81.2650,16.5,7.7,290.0,10.8,'1111122,1111122,1111122' 
NDBC,ioos:station:NOAA.NDBC:SAUF1:1,2019-01-05T16:00:00Z,29.8570,-81.2650,16.5,6.2,280.0,8.2,'1111122,1111122,1111122' 
NDBC,ioos:station:NOAA.NDBC:SAUF1:1,2019-01-05T17:00:00Z,29.8570,-81.2650,16.5,6.2,280.0,8.8,'1111122,1111122,1111122' 
NDBC,ioos:station:NOAA.NDBC:SAUF1:1,2019-01-05T18:00:00Z,29.8570,-81.2650,16.5,5.7,290.0,8.2,'1111122,1111122,1111122' 
NDBC,ioos:station:NOAA.NDBC:SAUF1:1,2019-01-05T19:00:00Z,29.8570,-81.2650,16.5,4.6,290.0,5.7,'1111122,1111122,1111122' 
NDBC,ioos:station:NOAA.NDBC:SAUF1:1,2019-01-05T20:00:00Z,29.8570,-81.2650,16.5,6.2,260.0,8.2,'1111122,1111122,1111122' 
NDBC,ioos:station:NOAA.NDBC:SAUF1:1,2019-01-05T21:00:00Z,29.8570,-81.2650,16.5,6.2,270.0,7.7,'1111122,1111122,1111122' 
NDBC,ioos:station:NOAA.NDBC:SAUF1:1,2019-01-05T22:00:00Z,29.8570,-81.2650,16.5,3.6,280.0,5.1,'1111122,1111122,1111122' 
NDBC,ioos:station:NOAA.NDBC:SAUF1:1,2019-01-05T23:00:00Z,29.8570,-81.2650,16.5,3.6,280.0,5.1,'1111122,1111122,1111122' 
NDBC,ioos:station:NOAA.NDBC:SAUF1:1,2019-01-06T00:00:00Z,29.8570,-81.2650,16.5,2.6,290.0,3.6,'1111122,1111122,1111122' 
NDBC,ioos:station:NOAA.NDBC:SAUF1:1,2019-01-06T01:00:00Z,29.8570,-81.2650,16.5,3.6,290.0,4.1,'1111122,1111122,1111122' 
NDBC,ioos:station:NOAA.NDBC:SAUF1:1,2019-01-06T02:00:00Z,29.8570,-81.2650,16.5,1.5,280.0,2.6,'1111122,1111122,1111122' 
NDBC,ioos:station:NOAA.NDBC:SAUF1:1,2019-01-06T03:00:00Z,29.8570,-81.2650,16.5,1.0,240.0,1.5,'1111122,1111122,1111122' 
NDBC,ioos:station:NOAA.NDBC:SAUF1:1,2019-01-06T05:00:00Z,29.8570,-81.2650,16.5,2.1,260.0,2.6,'1111122,1111122,1111122' 
NDBC,ioos:station:NOAA.NDBC:SAUF1:1,2019-01-06T06:00:00Z,29.8570,-81.2650,16.5,3.1,270.0,3.6,'1111122,1111122,1111122' 
NDBC,ioos:station:NOAA.NDBC:SAUF1:1,2019-01-06T07:00:00Z,29.8570,-81.2650,16.5,4.1,270.0,5.1,'1111122,1111122,1111122' 
NDBC,ioos:station:NOAA.NDBC:SAUF1:1,2019-01-06T08:00:00Z,29.8570,-81.2650,16.5,3.6,280.0,4.1,'1111122,1111122,1111122' 
NDBC,ioos:station:NOAA.NDBC:SAUF1:1,2019-01-06T09:00:00Z,29.8570,-81.2650,16.5,4.1,300.0,5.7,'1111122,1111122,1111122' 
NDBC,ioos:station:NOAA.NDBC:SAUF1:1,2019-01-06T10:00:00Z,29.8570,-81.2650,16.5,3.6,290.0,4.1,'1111122,1111122,1111122' 
NDBC,ioos:station:NOAA.NDBC:SAUF1:1,2019-01-06T11:00:00Z,29.8570,-81.2650,16.5,3.1,300.0,4.1,'1111122,1111122,1111122' 
NDBC,ioos:station:NOAA.NDBC:SAUF1:1,2019-01-06T12:00:00Z,29.8570,-81.2650,16.5,2.6,280.0,3.6,'1111122,1111122,1111122' 
NDBC,ioos:station:NOAA.NDBC:SAUF1:1,2019-01-06T13:00:00Z,29.8570,-81.2650,16.5,2.6,330.0,2.6,'1111122,1111122,1111122' 
NDBC,ioos:station:NOAA.NDBC:SAUF1:1,2019-01-06T14:00:00Z,29.8570,-81.2650,16.5,3.6,340.0,4.1,'1111122,1111122,1111122' 
NDBC,ioos:station:NOAA.NDBC:SAUF1:1,2019-01-06T15:00:00Z,29.8570,-81.2650,16.5,3.1,350.0,3.6,'1111122,1111122,1111122' 
NDBC,ioos:station:NOAA.NDBC:SAUF1:1,2019-01-06T16:00:00Z,29.8570,-81.2650,16.5,4.1,350.0,4.6,'1111122,1111122,1111122' 
NDBC,ioos:station:NOAA.NDBC:SAUF1:1,2019-01-06T18:00:00Z,29.8570,-81.2650,16.5,5.1,20.0,5.7,'1111122,1111122,1111122' 
NDBC,ioos:station:NOAA.NDBC:SAUF1:1,2019-01-06T19:00:00Z,29.8570,-81.2650,16.5,2.6,50.0,3.1,'1111122,1111122,1111122' 
NDBC,ioos:station:NOAA.NDBC:SAUF1:1,2019-01-06T20:00:00Z,29.8570,-81.2650,16.5,3.6,40.0,4.1,'1111122,1111122,1111122' 
NDBC,ioos:station:NOAA.NDBC:SAUF1:1,2019-01-06T21:00:00Z,29.8570,-81.2650,16.5,3.1,50.0,3.6,'1111122,1111122,1111122' 
NDBC,ioos:station:NOAA.NDBC:SAUF1:1,2019-01-06T22:00:00Z,29.8570,-81.2650,16.5,2.1,30.0,2.6,'1111122,1111122,1111122' 
NDBC,ioos:station:NOAA.NDBC:SAUF1:1,2019-01-06T23:00:00Z,29.8570,-81.2650,16.5,1.0,40.0,1.5,'1111122,1111122,1111122' 
NDBC,ioos:station:NOAA.NDBC:SAUF1:1,2019-01-07T00:00:00Z,29.8570,-81.2650,16.5,2.6,30.0,3.1,'1111122,1111122,1111122' 
NDBC,ioos:station:NOAA.NDBC:SAUF1:1,2019-01-07T01:00:00Z,29.8570,-81.2650,16.5,2.6,60.0,3.1,'1111122,1111122,1111122' 
NDBC,ioos:station:NOAA.NDBC:SAUF1:1,2019-01-07T02:00:00Z,29.8570,-81.2650,16.5,3.1,80.0,3.6,'1111122,1111122,1111122' 
NDBC,ioos:station:NOAA.NDBC:SAUF1:1,2019-01-07T03:00:00Z,29.8570,-81.2650,16.5,2.1,60.0,2.1,'1111122,1111122,1111122' 
NDBC,ioos:station:NOAA.NDBC:SAUF1:1,2019-01-07T04:00:00Z,29.8570,-81.2650,16.5,1.0,350.0,1.5,'1111122,1111122,1111122' 
NDBC,ioos:station:NOAA.NDBC:SAUF1:1,2019-01-07T05:00:00Z,29.8570,-81.2650,16.5,1.0,340.0,1.0,'1111122,1111122,1111122' 
NDBC,ioos:station:NOAA.NDBC:SAUF1:1,2019-01-07T06:00:00Z,29.8570,-81.2650,16.5,1.5,360.0,2.1,'1111122,1111122,1111122' 
NDBC,ioos:station:NOAA.NDBC:SAUF1:1,2019-01-07T07:00:00Z,29.8570,-81.2650,16.5,2.1,20.0,2.6,'1111122,1111122,1111122' 
NDBC,ioos:station:NOAA.NDBC:SAUF1:1,2019-01-07T09:00:00Z,29.8570,-81.2650,16.5,2.1,10.0,2.6,'1111122,1111122,1111122' 
NDBC,ioos:station:NOAA.NDBC:SAUF1:1,2019-01-07T10:00:00Z,29.8570,-81.2650,16.5,2.6,10.0,2.6,'1111122,1111122,1111122' 
NDBC,ioos:station:NOAA.NDBC:SAUF1:1,2019-01-07T11:00:00Z,29.8570,-81.2650,16.5,1.5,30.0,2.1,'1111122,1111122,1111122' 
NDBC,ioos:station:NOAA.NDBC:SAUF1:1,2019-01-07T12:00:00Z,29.8570,-81.2650,16.5,2.1,10.0,2.1,'1111122,1111122,1111122' 
NDBC,ioos:station:NOAA.NDBC:SAUF1:1,2019-01-07T13:00:00Z,29.8570,-81.2650,16.5,2.6,340.0,2.6,'1111122,1111122,1111122' 
NDBC,ioos:station:NOAA.NDBC:SAUF1:1,2019-01-07T14:00:00Z,29.8570,-81.2650,16.5,2.6,350.0,2.6,'1111122,1111122,1111122' 
NDBC,ioos:station:NOAA.NDBC:SAUF1:1,2019-01-07T15:00:00Z,29.8570,-81.2650,16.5,2.6,360.0,2.6,'1111122,1111122,1111122' 
NDBC,ioos:station:NOAA.NDBC:SAUF1:1,2019-01-07T16:00:00Z,29.8570,-81.2650,16.5,3.6,350.0,3.6,'1111122,1111122,1111122' 
NDBC,ioos:station:NOAA.NDBC:SAUF1:1,2019-01-07T17:00:00Z,29.8570,-81.2650,16.5,2.6,360.0,3.1,'1111122,1111122,1111122' 
NDBC,ioos:station:NOAA.NDBC:SAUF1:1,2019-01-07T18:00:00Z,29.8570,-81.2650,16.5,3.1,10.0,3.1,'1111122,1111122,1111122' 
NDBC,ioos:station:NOAA.NDBC:SAUF1:1,2019-01-07T19:00:00Z,29.8570,-81.2650,16.5,3.1,20.0,3.6,'1111122,1111122,1111122' 
NDBC,ioos:station:NOAA.NDBC:SAUF1:1,2019-01-07T20:00:00Z,29.8570,-81.2650,16.5,3.1,50.0,3.6,'1111122,1111122,1111122' 
NDBC,ioos:station:NOAA.NDBC:SAUF1:1,2019-01-07T21:00:00Z,29.8570,-81.2650,16.5,2.6,30.0,2.6,'1111122,1111122,1111122' 
NDBC,ioos:station:NOAA.NDBC:SAUF1:1,2019-01-07T22:00:00Z,29.8570,-81.2650,16.5,2.6,50.0,2.6,'1111122,1111122,1111122' 
NDBC,ioos:station:NOAA.NDBC:SAUF1:1,2019-01-07T23:00:00Z,29.8570,-81.2650,16.5,2.6,70.0,2.6,'1111122,1111122,1111122' 
NDBC,ioos:station:NOAA.NDBC:SAUF1:1,2019-01-08T00:00:00Z,29.8570,-81.2650,16.5,1.0,50.0,1.0,'1111122,1111122,1111122' 
NDBC,ioos:station:NOAA.NDBC:SAUF1:1,2019-01-08T01:00:00Z,29.8570,-81.2650,16.5,0.0,-9999.0,0.5,'1114422,1111122,1111122' 
NDBC,ioos:station:NOAA.NDBC:SAUF1:1,2019-01-08T02:00:00Z,29.8570,-81.2650,16.5,0.5,300.0,0.5,'1111122,1111122,1111122' 
NDBC,ioos:station:NOAA.NDBC:SAUF1:1,2019-01-08T03:00:00Z,29.8570,-81.2650,16.5,1.0,60.0,1.0,'1111122,1111122,1111122' 
NDBC,ioos:station:NOAA.NDBC:SAUF1:1,2019-01-08T04:00:00Z,29.8570,-81.2650,16.5,1.0,350.0,1.0,'1111122,1111122,1111122' 
NDBC,ioos:station:NOAA.NDBC:SAUF1:1,2019-01-08T05:00:00Z,29.8570,-81.2650,16.5,0.0,-9999.0,0.5,'1114422,1111122,1111122' 
NDBC,ioos:station:NOAA.NDBC:SAUF1:1,2019-01-08T08:00:00Z,29.8570,-81.2650,16.5,1.5,180.0,1.5,'1111122,1111122,1111122' 
NDBC,ioos:station:NOAA.NDBC:SAUF1:1,2019-01-08T09:00:00Z,29.8570,-81.2650,16.5,0.0,-9999.0,0.5,'1114422,1111122,1111122' 
NDBC,ioos:station:NOAA.NDBC:SAUF1:1,2019-01-08T10:00:00Z,29.8570,-81.2650,16.5,0.5,250.0,1.0,'1111122,1111122,1111122' 
NDBC,ioos:station:NOAA.NDBC:SAUF1:1,2019-01-08T11:00:00Z,29.8570,-81.2650,16.5,2.6,270.0,2.6,'1111122,1111122,1111122' 
NDBC,ioos:station:NOAA.NDBC:SAUF1:1,2019-01-08T12:00:00Z,29.8570,-81.2650,16.5,0.0,-9999.0,0.5,'1114422,1111122,1111122' 
NDBC,ioos:station:NOAA.NDBC:SAUF1:1,2019-01-08T13:00:00Z,29.8570,-81.2650,16.5,0.0,-9999.0,0.5,'1114422,1111122,1111122' 
NDBC,ioos:station:NOAA.NDBC:SAUF1:1,2019-01-08T14:00:00Z,29.8570,-81.2650,16.5,0.0,-9999.0,0.5,'1114422,1111122,1111122' 
NDBC,ioos:station:NOAA.NDBC:SAUF1:1,2019-01-08T15:00:00Z,29.8570,-81.2650,16.5,2.6,170.0,3.1,'1111122,1111122,1111122' 
NDBC,ioos:station:NOAA.NDBC:SAUF1:1,2019-01-08T16:00:00Z,29.8570,-81.2650,16.5,2.1,230.0,3.1,'1111122,1111122,1111122' 
NDBC,ioos:station:NOAA.NDBC:SAUF1:1,2019-01-08T17:00:00Z,29.8570,-81.2650,16.5,3.6,250.0,4.6,'1111122,1111122,1111122' 
NDBC,ioos:station:NOAA.NDBC:SAUF1:1,2019-01-08T18:00:00Z,29.8570,-81.2650,16.5,2.6,250.0,3.6,'1111122,1111122,1111122' 
NDBC,ioos:station:NOAA.NDBC:SAUF1:1,2019-01-08T19:00:00Z,29.8570,-81.2650,16.5,4.6,230.0,6.2,'1111122,1111122,1111122' 
NDBC,ioos:station:NOAA.NDBC:SAUF1:1,2019-01-08T20:00:00Z,29.8570,-81.2650,16.5,4.6,240.0,6.2,'1111122,1111122,1111122' 
NDBC,ioos:station:NOAA.NDBC:SAUF1:1,2019-01-08T21:00:00Z,29.8570,-81.2650,16.5,5.1,240.0,6.2,'1111122,1111122,1111122' 
NDBC,ioos:station:NOAA.NDBC:SAUF1:1,2019-01-08T22:00:00Z,29.8570,-81.2650,16.5,3.1,260.0,4.6,'1111122,1111122,1111122' 
NDBC,ioos:station:NOAA.NDBC:SAUF1:1,2019-01-08T23:00:00Z,29.8570,-81.2650,16.5,2.1,240.0,2.6,'1111122,1111122,1111122' 
NDBC,ioos:station:NOAA.NDBC:SAUF1:1,2019-01-09T00:00:00Z,29.8570,-81.2650,16.5,2.1,290.0,2.6,'1111122,1111122,1111122' 
NDBC,ioos:station:NOAA.NDBC:SAUF1:1,2019-01-09T01:00:00Z,29.8570,-81.2650,16.5,2.1,260.0,2.6,'1111122,1111122,1111122' 
NDBC,ioos:station:NOAA.NDBC:SAUF1:1,2019-01-09T02:00:00Z,29.8570,-81.2650,16.5,2.1,260.0,2.6,'1111122,1111122,1111122' 
NDBC,ioos:station:NOAA.NDBC:SAUF1:1,2019-01-09T03:00:00Z,29.8570,-81.2650,16.5,2.1,280.0,3.6,'1111122,1111122,1111122' 
NDBC,ioos:station:NOAA.NDBC:SAUF1:1,2019-01-09T04:00:00Z,29.8570,-81.2650,16.5,3.1,270.0,3.6,'1111122,1111122,1111122' 
NDBC,ioos:station:NOAA.NDBC:SAUF1:1,2019-01-09T05:00:00Z,29.8570,-81.2650,16.5,3.1,260.0,3.6,'1111122,1111122,1111122' 
NDBC,ioos:station:NOAA.NDBC:SAUF1:1,2019-01-09T06:00:00Z,29.8570,-81.2650,16.5,3.6,260.0,4.1,'1111122,1111122,1111122' 
NDBC,ioos:station:NOAA.NDBC:SAUF1:1,2019-01-09T07:00:00Z,29.8570,-81.2650,16.5,4.1,270.0,6.2,'1111122,1111122,1111122' 
NDBC,ioos:station:NOAA.NDBC:SAUF1:1,2019-01-09T08:00:00Z,29.8570,-81.2650,16.5,3.6,270.0,4.1,'1111122,1111122,1111122' 
NDBC,ioos:station:NOAA.NDBC:SAUF1:1,2019-01-09T09:00:00Z,29.8570,-81.2650,16.5,3.1,260.0,4.1,'1111122,1111122,1111122' 
NDBC,ioos:station:NOAA.NDBC:SAUF1:1,2019-01-09T10:00:00Z,29.8570,-81.2650,16.5,2.1,250.0,2.6,'1111122,1111122,1111122' 
NDBC,ioos:station:NOAA.NDBC:SAUF1:1,2019-01-09T11:00:00Z,29.8570,-81.2650,16.5,2.6,250.0,3.1,'1111122,1111122,1111122' 
NDBC,ioos:station:NOAA.NDBC:SAUF1:1,2019-01-09T12:00:00Z,29.8570,-81.2650,16.5,2.6,280.0,3.6,'1111122,1111122,1111122' 
NDBC,ioos:station:NOAA.NDBC:SAUF1:1,2019-01-09T13:00:00Z,29.8570,-81.2650,16.5,3.1,290.0,4.1,'1111122,1111122,1111122' 
NDBC,ioos:station:NOAA.NDBC:SAUF1:1,2019-01-09T14:00:00Z,29.8570,-81.2650,16.5,4.6,330.0,5.7,'1111122,1111122,1111122' 
NDBC,ioos:station:NOAA.NDBC:SAUF1:1,2019-01-09T15:00:00Z,29.8570,-81.2650,16.5,5.1,320.0,7.2,'1111122,1111122,1111122' 
NDBC,ioos:station:NOAA.NDBC:SAUF1:1,2019-01-09T18:00:00Z,29.8570,-81.2650,16.5,6.7,330.0,8.8,'1111122,1111122,1111122' 
NDBC,ioos:station:NOAA.NDBC:SAUF1:1,2019-01-09T19:00:00Z,29.8570,-81.2650,16.5,6.2,320.0,7.7,'1111122,1111122,1111122' 